Weather in Zatvornoye

Russia / Ryazan Oblast     53°45′52″N   39°04′12″E
temp.,
°C
wind,
m/s
gust,
m/s
humid.,
%
clouds,
%
prec.,
mm/h
press.,
hPa
HPBL,
m
19 may, wed
wed1900:00+18se511690 0.0 1005288
03:00+15sse349451 0.0 100567
06:00+15sse4109425 0.3 1006428
09:00+18s577569 0.4 1007853
12:00+21sse686190 0.6 10071654
15:00+22sse795638 0.7 10072072
18:00+19se5973100 0.4 1007795
21:00+14wnw119266 1.3 100713
20 may, thu
thu2000:00+15se71489100 1.1 1005597
03:00+11sse410933 1.3 1006391
06:00+11se5119475 0.0 1006456
09:00+14se798373 0.0 1006826
12:00+16s797680 0.4 10061074
15:00+17s686859 0.8 10051269
18:00+14sw4885100 1.3 1006500
21:00+12ssw399417 1.3 1006367
21 may, fri
fri2100:00+11sw4109568 0.0 1008489
03:00+11sw61191100 0.1 1008643
06:00+10wsw51091100 0.0 1010628
09:00+11wsw6986100 0.0 1012756
12:00+14w5774100 0.0 1014944
15:00+15wnw3566100 0.1 10151194
18:00+17w3466100 0.0 1016338
21:00+12w2275100 0.0 101815
22 may, sat
sat2200:00+11wnw0176100 0.0 101810
03:00+11ne117688 0.0 101810
06:00+11nne2381100 0.0 101981
09:00+15e2371100 0.0 1019453
12:00+17ese3368100 0.0 10191070
15:00+17e446284 0.0 10191093
18:00+16e3470100 0.0 1018845
21:00+12ene3390100 0.0 101939
23 may, sun
sun2300:00+11ene3792100 0.0 1018150
03:00+10ene3997100 0.0 1016209
06:00+12ene41092100 0.0 1015274
09:00+15ene6885100 0.0 1012384
12:00+17ese4582100 0.0 1011458
15:00+20e2379100 0.1 1010548
18:00+19nnw4689100 0.1 1008198
21:00+17n3595100 0.1 100793